Location: Saluda
(35.2377°N, 82.3468°W)
Time: 15:33:23
(UTC+00:00)

Explorer 11/Cluster Stage 4 - Pass Details

Date: 12 October 2022
Orbit: 466 x 1247 km, 28.8° (Epoch: 08 December)

Event Time Altitude Azimuth Distance (km) Brightness Sun altitude
Rises 13:30:26 0° 245° (WSW) 3,646 9.7 21.9°
Reaches altitude 10° 13:33:01 10° 240° (WSW) 2,808 9.2 22.4°
Maximum altitude 13:39:43 47° 168° (SSE) 1,476 8.8 23.6°
Drops below altitude 10° 13:47:21 10° 98° (E) 3,189 11.1 24.9°
Sets 13:50:28 0° 93° (E) 4,180 11.3 25.5°
